Location: Unspecified
(0.0000°N, 0.0000°E)
Time: 18:51:05
(UTC+00:00)

ITUPSAT 1 - Visible Passes

Search period start: 06 December 2019 00:00
Search period end: 16 December 2019 00:00
Orbit: 701 x 713 km, 98.6° (Epoch: 05 December)

Date Brightness Start Highest point End Pass type
(mag) Time Alt. Az. Time Alt. Az. Time Alt. Az.
06 Dec ? 04:55:02 10° SSE 04:59:41 56° ENE 05:04:19 10° N visible
07 Dec ? 04:05:10 10° E 04:06:20 11° ENE 04:07:30 10° ENE visible
08 Dec ? 04:46:00 10° SSE 04:50:29 41° ENE 04:54:56 10° N visible
10 Dec ? 04:37:05 10° SE 04:41:16 31° ENE 04:45:25 10° NNE visible
11 Dec ? 05:20:43 10° S 05:25:26 67° WSW 05:30:08 10° NNW visible
12 Dec ? 04:28:18 10° SE 04:32:03 23° ENE 04:35:48 10° NNE visible
13 Dec ? 05:11:28 10° SSE 05:16:13 90° W 05:20:57 10° NNW visible
14 Dec ? 04:19:42 10° ESE 04:22:51 18° ENE 04:25:59 10° NE visible
14 Dec ? 18:20:32 10° NW 18:22:23 12° WNW 18:24:14 10° W visible
15 Dec ? 05:02:17 10° SSE 05:07:01 68° ENE 05:11:42 10° N visible
